CFG032 EDDF-KSEA

Flight info

Callsign CFG032
Flight time N/A
Altitude 34000
Route MARUN7F/25C MARUN Y152 ARPEG Z850 ABILU DCT ATPAQ DCT MALYK DCT AFPIN DCT REXMI DCT KARLI DCT GUNPA/M081F340 DCT 68N010W/M082F360 72N020W 7440N04000W 75N060W 74N070W/N0476F380 73N080W 71N090W 6730N10000W 61N110W 55N115W DCT YZU DCT LONRO DCT YDC DCT JAKSN GLASR3
Aircraft A339/H-SADE1E2E3GHIJ3J5M1P2RWXY/LB2D1

Departure

Time 2026-05-04 07:14
Airport Frankfurt Main Airport (EDDF)

Arrival

Time N/A
Airport Seattle–Tacoma International Airport (KSEA)
Time Latitude Longitude Altitude Speed Heading
2026-05-04 06:57 50.04752 8.57457 379 ft 0 kts 45°
2026-05-04 07:04 50.04748 8.57451 380 ft 2 kts 44°
2026-05-04 07:05 50.04732 8.57431 380 ft 2 kts 32°
2026-05-04 07:05 50.04718 8.57420 380 ft 2 kts 25°
2026-05-04 07:05 50.04712 8.57415 380 ft 2 kts 22°
2026-05-04 07:05 50.04690 8.57404 380 ft 2 kts 14°
2026-05-04 07:06 50.04666 8.57395 380 ft 2 kts 15°
2026-05-04 07:06 50.04647 8.57387 380 ft 2 kts 15°
2026-05-04 07:06 50.04632 8.57381 380 ft 2 kts 15°
2026-05-04 07:07 50.04617 8.57375 380 ft 2 kts 15°
2026-05-04 07:08 50.04560 8.57285 380 ft 0 kts 69°
2026-05-04 07:10 50.04564 8.57300 380 ft 4 kts 69°
2026-05-04 07:10 50.04584 8.57382 380 ft 11 kts 70°
2026-05-04 07:12 50.04605 8.58279 380 ft 17 kts 71°
2026-05-04 07:12 50.04647 8.58451 380 ft 16 kts 70°
2026-05-04 07:12 50.04599 8.58589 381 ft 11 kts 154°
2026-05-04 07:12 50.04546 8.58615 381 ft 11 kts 168°
2026-05-04 07:13 50.04481 8.58562 381 ft 11 kts 241°
2026-05-04 07:13 50.04400 8.58227 381 ft 57 kts 250°
2026-05-04 07:13 50.04273 8.57694 381 ft 96 kts 250°
2026-05-04 07:14 50.02697 8.51063 1552 ft 186 kts 261°
2026-05-04 07:14 50.02772 8.48362 2283 ft 192 kts 276°
2026-05-04 07:15 50.02961 8.46246 2560 ft 204 kts 276°
2026-05-04 07:15 50.03092 8.44759 2727 ft 213 kts 276°
2026-05-04 07:15 50.03739 8.41735 3062 ft 233 kts 308°
2026-05-04 07:15 50.05004 8.39988 3348 ft 249 kts 323°
2026-05-04 07:16 50.05950 8.38913 3577 ft 257 kts 323°
2026-05-04 07:16 50.07453 8.37202 3967 ft 268 kts 322°
2026-05-04 07:16 50.09446 8.34889 4744 ft 270 kts 321°
2026-05-04 07:16 50.10463 8.33735 5101 ft 272 kts 326°
2026-05-04 07:17 50.12935 8.32818 5781 ft 281 kts
2026-05-04 07:17 50.14831 8.33611 6336 ft 283 kts 16°
2026-05-04 07:17 50.16730 8.34567 6831 ft 286 kts 16°
2026-05-04 07:17 50.18613 8.35507 7368 ft 288 kts 16°